DMSP 5D-3 F17 (USA 191)

Last updated on Wed Sep 17 2025 00:02:22 GMT+0000 (Coordinated Universal Time)

1 29522U 06050A 25259.57729284 .00000145 00000+0 97434-4 0 9998 2 29522 98.7421 266.7613 0011144 114.6185 245.6150 14.14861143973725
UTC large
Height (km)
Speed (km/s)
/
Latitude / Longitude
Inclination (degrees)
Orbital Period (minutes)
Azimuth
Elevation
Range (km)
Doppler Factor

Next 0 passes for location: London (51.5072 / 0.1276)

Sorry there are no passes over London.